Taurus 1
1 44530U 19059C   25056.89566238  .00015949  00000-0  30970-2 0  9994
2 44530  98.5917 191.6280 0009101 351.3129   8.7913 14.63233840288762
Duchifat 3
1 44854U 19089C   25056.91099770  .00055101  00000-0  15645-2 0  9997
2 44854  36.9474 289.0900 0006707  28.9706 331.1419 15.35162031286948
TO-108
1 44881U 19093C   25056.82295414  .00002977  00000-0  35317-3 0  9997
2 44881  97.8016 134.6319 0013335 207.2551 152.7965 14.85188411280671
FloripaSat 1
1 44885U 19093G   25056.78625527  .00014235  00000-0  12576-2 0  9999
2 44885  97.8204 144.3091 0011146 187.0707 173.0359 14.96414287281214
RS-44
1 44909U 19096E   25056.41782557  .00000034  00000-0  89401-4 0  9991
2 44909  82.5207 296.5058 0217388 178.8658 181.2982 12.79738456241368
UPMSat 2
1 46276U 20061E   25056.73917772  .00064488  00000-0  99058-3 0  9999
2 46276  97.2602 128.6996 0000603 185.2845 174.8403 15.54055674249268
SALSAT
1 46495U 20068K   25056.38739555  .00017408  00000-0  80475-3 0  9994
2 46495  97.8496  29.8495 0013019 153.6828 206.5070 15.20164269242685
CubeSX-Sirius-HSE
1 47951U 21022V   25056.84758891  .00109211  00000-0  16293-2 0  9998
2 47951  97.4330 324.5379 0005257 335.8239  24.2767 15.54675117217548
CubeSX-HSE
1 47952U 21022W   25056.88850444  .00113342  00000-0  16568-2 0  9995
2 47952  97.4327 324.7678 0004697 328.7647  31.3328 15.55222281217565
KSU-Cubesat
1 47954U 21022Y   25056.74698730  .00399670  00000-0  21385-2 0  9993
2 47954  97.4277 329.0458 0002115  92.7608 267.3901 15.79256075217543
GRBAlpha
1 47959U 21022AD  25056.78710704  .00113102  00000-0  16654-2 0  9995
2 47959  97.4317 324.8172 0005091 334.9516  25.1490 15.55021316216379
Orbicraft-Zorkiy
1 47960U 21022AE  25056.83384824  .00201379  00000-0  18260-2 0  9992
2 47960  97.4303 328.1328 0001788 359.6043   0.5216 15.67395046217252
TUBIN
1 48900U 21059X   25056.86835590  .00053778  00000-0  99187-3 0  9997
2 48900  97.6668 218.6019 0005086 263.0806  96.9866 15.48941834203923
LEDSAT
1 49069U 21073D   25056.84859866  .00062828  00000-0  12884-2 0  9994
2 49069  97.4020 135.1750 0012482  99.2911 260.9750 15.45756468195333
CUTE
1 49263U 21088D   25055.92677967  .00033063  00000-0  77604-3 0  9995
2 49263  97.4627 129.4736 0008382 259.0506 100.9798 15.41941666188274
TeikyoSat 4
1 49396U 21102B   25056.59241554  .00005755  00000-0  38885-3 0  9997
2 49396  97.4265  98.7369 0013926 126.7245 233.5264 15.06868358180886
Z-Sat
1 49399U 21102E   25056.83913548  .00009502  00000-0  53994-3 0  9998
2 49399  97.3969 101.4751 0020334 103.1144 257.2358 15.12929393181280
KOSEN 1
1 49402U 21102H   25056.67524641  .00015349  00000-0  75422-3 0  9993
2 49402  97.3878 104.0005 0018010  83.6074 276.7210 15.17993614181518
HO-113
1 50466U 21131B   25056.86354773  .00001577  00000-0  50862-3 0  9994
2 50466  98.5118 146.7491 0005223  90.8134 269.3653 14.40568200166517
IRIS-A
1 51044U 22002BN  25056.44911990  .00126857  00000-0  15511-2 0  9999
2 51044  97.3429 131.7833 0004253 204.9494 155.1558 15.59976900173475
Foresail-1
1 52766U 22057AL  25056.35480007  .00111280  00000-0  13987-2 0  9990
2 52766  97.5983 198.5755 0006828 292.4882  67.5650 15.59284145153493
SNUGLITE 2
1 52899U 22065F   25056.32719153  .00004002  00000-0  79478-3 0  9991
2 52899  98.1489 199.4499 0008534  82.6788 277.5383 14.62688427141243
IO-117
1 53106U 22080B   25051.21822557 -.00000003  00000-0  00000+0 0  9995
2 53106  70.1434 106.3440 0008542  48.0089 312.1297  6.42557744 61200
FO-118
1 54684U 22167C   25056.85680374  .00968231  44951-3  20680-2 0  9997
2 54684  97.6019 221.7200 0010258 296.2810  63.7413 15.98611582123588
SO-120
1 56992U 23084BU  25042.76759540  .17342116  26494-5  33638-3 0  9995
2 56992  97.5047 178.6720 0014759 276.3055  83.6566 16.46134597 93271
UmKA 1 (RS40S)
1 57172U 23091G   25056.87693690  .00012239  00000-0  68788-3 0  9990
2 57172  97.5751 112.8502 0014254 337.5566  22.5040 15.13357188 91788
CubeBel-2 (EU11S)
1 57175U 23091K   25056.87824756  .00018338  00000-0  94877-3 0  9996
2 57175  97.5750 113.4511 0012450 347.8514  12.2416 15.16227023 91825
VERONIKA
1 58261U 23174F   25056.76729238  .00087361  00000-0  17588-2 0  9997
2 58261  97.4268 138.7024 0006496  60.8072 299.3826 15.46253452 72525
KAFASAT
1 58317U 23174BP  25056.82775973  .00278437  00000-0  23599-2 0  9998
2 58317  97.4137 142.3676 0003956 333.6682  26.4378 15.68823664 72794
ENSO
1 58470U 23185J   25056.86708921  .00058049  00000-0  13121-2 0  9998
2 58470  97.3885 129.5852 0008783  97.7635 262.4610 15.42938545 68978
EIRSAT-1
1 58472U 23185L   25056.85703119  .00080542  00000-0  15673-2 0  9990
2 58472  97.3876 130.3202 0007552  97.7150 262.4958 15.47263998 69024
SONATE-2
1 59112U 24043Q   25056.80515062  .00030156  00000-0  10206-2 0  9992
2 59112  97.4977 186.3738 0012291 122.7616 237.4811 15.30480727 54438
MO-122
1 60209U 24125G   25056.57794363  .00032143  00000-0  10733-2 0  9992
2 60209  97.2936 269.6268 0021505 146.8333 213.4261 15.30747262 36011
GRBBeta
1 60237U 24128C   25056.48024606  .00009605  00000-0  74932-3 0  9991
2 60237  61.9919  82.1418 0041989  33.5323 326.8412 15.01016640 34567
Curium One
1 60242U 24128H   25056.79005958  .00015411  00000-0  11479-2 0  9998
2 60242  61.9821  80.6151 0042396  28.3325 332.0058 15.02412948 34623
ROBUSTA-3A
1 60243U 24128J   25056.56447761  .00014750  00000-0  11122-2 0  9996
2 60243  61.9888  81.9131 0040614  26.2927 334.0213 15.02036604 34586
CatSat
1 60246U 24125J   25056.57160425  .00018802  00000-0  68110-3 0  9998
2 60246  97.2720 269.8636 0046836 103.7377 256.9082 15.27365432 34098
HYPERVIEW-1G (RS66S)
1 61772U 24199AP  25056.87621124  .00032667  00000-0  11408-2 0  9997
2 61772  97.3718 286.2567 0014622 198.1138 161.9583 15.29411998 61078
AO-123
1 61781U 24199AY  25056.80649837  .00014996  00000-0  58269-3 0  9993
2 61781  97.3725 285.9053 0015852 200.2820 159.7790 15.26037465 61043
POEM 4 (BGS ARPIT)
1 62461U 24253C   25056.67406910  .00233903  00000-0  87953-3 0  9991
2 62461  55.2193 343.7625 0010919  88.0266 272.2037 15.86631511  8981
HADES-R (SO-124)
1 62690U 25009CK  25056.31628120  .00060183  00000-0  28553-2 0  9993
2 62690  97.4196 138.2152 0002899 106.9789 253.1763 15.19032037  6263
